Location: �perlecques
(50.8057°N, 2.1521°E)
Time: 12:42:59
(UTC+00:00)

Cosmos 1408 - Pass Details

Date: 09 April 2020
Orbit: 470 x 494 km, 82.6° (Epoch: 02 June)

Event Time Altitude Azimuth Distance (km) Brightness Sun altitude
Rises 20:40:38 0° 353° (N) 2,565 7.0 -18.1°
Reaches altitude 10° 20:42:47 10° 359° (N) 1,683 5.8 -18.4°
Maximum altitude 20:46:23 52° 76° (ENE) 618 2.8 -18.8°
Enters shadow 20:46:40 50° 95° (E) 629 2.7 -18.8°
